Tiempo cada hora Dabrowka

Hoy, 2 Diciembre, Miércoles

Tiempo Temperatura Precipitaciones Viento Presión Humedad
00:00 -3°C° 0 mm 2 mps 759 mmHg 79%
01:00 -3°C° 0 mm 2 mps 759 mmHg 83%
02:00 -3°C° 0 mm 2 mps 759 mmHg 82%
03:00 -3°C° 0 mm 2 mps 759 mmHg 82%
04:00 -3°C° 0 mm 2 mps 758 mmHg 82%
05:00 -3°C° 0 mm 2 mps 759 mmHg 81%
06:00 -4°C° 0 mm 3 mps 759 mmHg 80%
07:00 -4°C° 0 mm 3 mps 759 mmHg 79%
08:00 -4°C° 0 mm 4 mps 759 mmHg 75%
09:00 -4°C° 0 mm 4 mps 759 mmHg 70%
10:00 -3°C° 0 mm 4 mps 759 mmHg 66%
11:00 -3°C° 0 mm 4 mps 758 mmHg 63%
12:00 -3°C° 0 mm 4 mps 758 mmHg 60%
13:00 -2°C° 0 mm 4 mps 757 mmHg 57%
14:00 -3°C° 0 mm 4 mps 757 mmHg 60%
15:00 -2°C° 0 mm 3 mps 756 mmHg 63%
16:00 -4°C° 0 mm 3 mps 756 mmHg 66%
17:00 -4°C° 0 mm 3 mps 755 mmHg 66%
18:00 -4°C° 0 mm 4 mps 755 mmHg 66%
19:00 -4°C° 0 mm 4 mps 755 mmHg 66%
20:00 -4°C° 0 mm 4 mps 754 mmHg 67%
21:00 -5°C° 0 mm 4 mps 754 mmHg 68%
22:00 -5°C° 0 mm 4 mps 754 mmHg 70%
23:00 -5°C° 0 mm 4 mps 753 mmHg 73%

Mañana, 3 Diciembre, Jueves

Tiempo Temperatura Precipitaciones Viento Presión Humedad
00:00 -5°C° 0 mm 3 mps 753 mmHg 76%
01:00 -5°C° 0 mm 3 mps 753 mmHg 79%
02:00 -5°C° 0 mm 4 mps 752 mmHg 81%
03:00 -5°C° 0 mm 4 mps 751 mmHg 83%
04:00 -7°C° 0 mm 4 mps 751 mmHg 85%
05:00 -7°C° 0 mm 4 mps 750 mmHg 86%
06:00 -7°C° 0 mm 4 mps 750 mmHg 86%
07:00 -5°C° 0 mm 4 mps 750 mmHg 86%
08:00 -5°C° 0 mm 4 mps 749 mmHg 82%
09:00 -5°C° 0 mm 5 mps 749 mmHg 79%
10:00 -5°C° 0 mm 5 mps 749 mmHg 75%
11:00 -5°C° 0 mm 5 mps 748 mmHg 73%
12:00 -4°C° 0 mm 5 mps 748 mmHg 71%
13:00 -4°C° 0 mm 5 mps 748 mmHg 69%
14:00 -4°C° 0.2 mm 5 mps 747 mmHg 76%
15:00 -5°C° 0.2 mm 5 mps 746 mmHg 84%
16:00 -5°C° 0.2 mm 5 mps 746 mmHg 91%
17:00 -5°C° 0.1 mm 5 mps 746 mmHg 86%
18:00 -4°C° 0.1 mm 5 mps 746 mmHg 81%
19:00 -3°C° 0.1 mm 4 mps 745 mmHg 75%
20:00 -3°C° 0 mm 4 mps 745 mmHg 78%
21:00 -3°C° 0 mm 4 mps 745 mmHg 80%
22:00 -3°C° 0 mm 4 mps 744 mmHg 82%
23:00 -3°C° 0 mm 4 mps 744 mmHg 82%

Pasado mañana, 4 Diciembre, Viernes

Tiempo Temperatura Precipitaciones Viento Presión Humedad
00:00 -2°C° 0 mm 4 mps 744 mmHg 83%
01:00 -2°C° 0 mm 4 mps 744 mmHg 83%
02:00 -2°C° 0 mm 4 mps 743 mmHg 83%
03:00 -2°C° 0 mm 4 mps 743 mmHg 84%
04:00 -2°C° 0 mm 5 mps 742 mmHg 84%
05:00 -2°C° 0.3 mm 5 mps 742 mmHg 85%
06:00 -1°C° 0.3 mm 4 mps 742 mmHg 86%
07:00 -1°C° 0.3 mm 4 mps 742 mmHg 88%
08:00 -1°C° 0.3 mm 5 mps 742 mmHg 87%
09:00 -1°C° 0.3 mm 5 mps 741 mmHg 86%
10:00 -1°C° 0.3 mm 5 mps 741 mmHg 85%
11:00 0°C° 0.2 mm 5 mps 741 mmHg 84%
12:00 0°C° 0.2 mm 5 mps 741 mmHg 84%
13:00 0°C° 0.2 mm 4 mps 741 mmHg 83%
14:00 0°C° 0.3 mm 4 mps 741 mmHg 82%
15:00 +1°C° 0.3 mm 4 mps 740 mmHg 80%
16:00 +1°C° 0.3 mm 5 mps 740 mmHg 78%
17:00 +1°C° 0 mm 5 mps 740 mmHg 78%
18:00 +1°C° 0 mm 5 mps 740 mmHg 78%
19:00 +1°C° 0 mm 6 mps 741 mmHg 78%
20:00 +1°C° 0 mm 5 mps 741 mmHg 79%
21:00 +1°C° 0 mm 5 mps 741 mmHg 80%
22:00 +1°C° 0 mm 5 mps 741 mmHg 81%
23:00 +1°C° 0 mm 5 mps 741 mmHg 81%

5 Diciembre, Sábado

Tiempo Temperatura Precipitaciones Viento Presión Humedad
00:00 +1°C° 0 mm 5 mps 742 mmHg 81%
01:00 +1°C° 0 mm 5 mps 742 mmHg 82%
02:00 +1°C° 0 mm 5 mps 742 mmHg 83%
03:00 +1°C° 0 mm 5 mps 742 mmHg 84%
04:00 +1°C° 0 mm 5 mps 742 mmHg 85%
05:00 +1°C° 0 mm 5 mps 742 mmHg 85%
06:00 +1°C° 0 mm 5 mps 743 mmHg 86%
07:00 +1°C° 0 mm 5 mps 743 mmHg 86%
08:00 +1°C° 0 mm 5 mps 743 mmHg 85%
09:00 +2°C° 0 mm 6 mps 743 mmHg 83%
10:00 +2°C° 0 mm 6 mps 744 mmHg 82%
11:00 +3°C° 0 mm 6 mps 744 mmHg 80%
12:00 +3°C° 0 mm 6 mps 744 mmHg 79%
13:00 +4°C° 0 mm 6 mps 744 mmHg 77%
14:00 +4°C° 0 mm 6 mps 744 mmHg 78%
15:00 +4°C° 0 mm 6 mps 744 mmHg 79%
16:00 +4°C° 0 mm 6 mps 744 mmHg 80%
17:00 +4°C° 0 mm 6 mps 744 mmHg 81%
18:00 +4°C° 0 mm 6 mps 744 mmHg 82%
19:00 +4°C° 0 mm 6 mps 744 mmHg 84%
20:00 +4°C° 0 mm 6 mps 744 mmHg 85%
21:00 +3°C° 0 mm 6 mps 745 mmHg 86%
22:00 +3°C° 0 mm 6 mps 745 mmHg 87%
23:00 +3°C° 0 mm 6 mps 745 mmHg 87%

6 Diciembre, Domingo

Tiempo Temperatura Precipitaciones Viento Presión Humedad
00:00 +3°C° 0 mm 5 mps 745 mmHg 86%
01:00 +5°C° 0 mm 5 mps 745 mmHg 86%
02:00 +3°C° 0 mm 5 mps 745 mmHg 87%
03:00 +3°C° 0 mm 5 mps 745 mmHg 88%
04:00 +3°C° 0 mm 5 mps 745 mmHg 88%
05:00 +3°C° 0 mm 6 mps 745 mmHg 89%
06:00 +3°C° 0 mm 6 mps 745 mmHg 89%
07:00 +3°C° 0 mm 6 mps 745 mmHg 89%
08:00 +4°C° 0 mm 6 mps 746 mmHg 88%
09:00 +4°C° 0 mm 6 mps 746 mmHg 87%
10:00 +4°C° 0 mm 7 mps 746 mmHg 86%
11:00 +5°C° 0 mm 7 mps 746 mmHg 84%
12:00 +5°C° 0 mm 7 mps 746 mmHg 82%
13:00 +5°C° 0 mm 7 mps 746 mmHg 80%
14:00 +5°C° 0 mm 7 mps 746 mmHg 82%
15:00 +4°C° 0 mm 7 mps 746 mmHg 84%
16:00 +3°C° 0 mm 6 mps 746 mmHg 86%
17:00 +3°C° 0 mm 6 mps 746 mmHg 85%
18:00 +3°C° 0 mm 6 mps 746 mmHg 84%
19:00 +3°C° 0 mm 7 mps 746 mmHg 82%
20:00 +2°C° 0 mm 7 mps 746 mmHg 82%
21:00 +2°C° 0 mm 7 mps 746 mmHg 81%
22:00 +2°C° 0 mm 7 mps 746 mmHg 80%
23:00 +2°C° 0 mm 7 mps 746 mmHg 80%

7 Diciembre, Lunes

Tiempo Temperatura Precipitaciones Viento Presión Humedad
00:00 0°C° 0 mm 7 mps 746 mmHg 79%
01:00 0°C° 0 mm 7 mps 746 mmHg 79%
02:00 +1°C° 0 mm 6 mps 746 mmHg 80%
03:00 +1°C° 0 mm 6 mps 746 mmHg 80%
04:00 +1°C° 0 mm 6 mps 745 mmHg 81%
05:00 +1°C° 0 mm 6 mps 745 mmHg 80%
06:00 +1°C° 0 mm 6 mps 745 mmHg 80%
07:00 +1°C° 0 mm 6 mps 745 mmHg 80%
08:00 +1°C° 0 mm 6 mps 746 mmHg 77%
09:00 +1°C° 0 mm 6 mps 746 mmHg 75%
10:00 -1°C° 0 mm 6 mps 746 mmHg 72%
11:00 -1°C° 0.2 mm 6 mps 746 mmHg 73%
12:00 -1°C° 0.2 mm 6 mps 746 mmHg 74%
13:00 -1°C° 0.2 mm 6 mps 746 mmHg 75%
14:00 -2°C° 0.5 mm 6 mps 746 mmHg 79%
15:00 -2°C° 0.5 mm 6 mps 746 mmHg 83%
16:00 -3°C° 0.5 mm 6 mps 746 mmHg 87%
17:00 -2°C° 0.5 mm 5 mps 746 mmHg 88%
18:00 -2°C° 0.5 mm 5 mps 746 mmHg 88%
19:00 -2°C° 0.5 mm 5 mps 746 mmHg 89%
20:00 -2°C° 0.1 mm 4 mps 746 mmHg 89%
21:00 -1°C° 0.1 mm 4 mps 746 mmHg 89%
22:00 -1°C° 0.1 mm 4 mps 746 mmHg 89%
23:00 0°C° 0 mm 3 mps 747 mmHg 90%
Mostrar más

Necesitamos Su Consentimiento

Meteoprog y nuestros Proveedores de Servicios pueden almacenar y acceder a sus datos personales como cookies, identificadores de dispositivo u otras tecnologías similares de su dispositivo y procesar dichos datos para personalizar contenido y anuncios, además de ofrecer funciones de redes sociales y analizar el tráfico.

  • Almacenar y/o acceder a información en su dispositivo

    Se puede almacenar o acceder a cookies, identificadores de dispositivo u otra información de su dispositivo para los fines anteriormente indicados.

  • Anuncios y contenido personalizados, medición de anuncios y contenido, percepciones del público, y desarrollo de productos

    Los anuncios y el contenido pueden personalizarse en base a su perfil. Se pueden añadir más datos para personalizar mejor los anuncios y contenidos. Se puede medir el rendimiento de los anuncios y contenidos. Se puede obtener la percepción sobre el público que ha visto los anuncios y contenidos. Dichos datos pueden usarse para desarrollar o mejorar la experiencia del usuario, sistemas y software.

Al hacer clic en ‘Estoy De Acuerdo’ usted permitirá el uso de las cookies, identificadores de dispositivo, balizas web u otras tecnologías similares indicadas. Su configuración puede cambiarse desde el navegador de su dispositivo.

Para ciertos fines, los intereses legítimos pueden ser considerados por encima del consentimiento. Puede leer más sobre ello en nuestra Política de Privacidad y Cookies.